User: anonymous   Login
Location: Unspecified
(0.0000°N, 0.0000°E)
Time: 01:09:10
(UTC+00:00)
Language:

TIGER-6 - Orbit

View from above orbital plane
View from above orbital plane
View from above satellite
View from above satellite

Ground track
Ground track

The orbit is defined by the following mean orbital elements,

1 58272U          26145.54241257 +.00000000 +00000-0 +99062-3 0 00004
2 58272  97.3747 244.4235 0009054 243.6254 116.4096 16.02016807    09
Epoch (UTC): 25 May 2026 13:01:04
Eccentricity: 0.0009054
inclination: 97.3747°
perigee height: 263 km
apogee height: 275 km
right ascension of ascending node: 244.4235°
argument of perigee: 243.6254°
revolutions per day: 16.02016807
mean anomaly at epoch: 116.4096°

The dashed part of the orbit path shows where the satellite is in the earth's shadow,  

DLR